Simultaneous Nadir Overpasses (SNOs) Predictions

Prediction of SNOs between GOES-15 and LANDSAT-8 Satellite Orbit:

Table of predicted SNOs for the next 14.0 days since TLE Epoch: 8/6/2022
Index Date Time (GOES-15) GOES-15 Lat,Lon LANDSAT-8 Lat,Lon Distance(km) Time Diff (sec)
1 08/06/2022 06:42:55 0.08,-127.98 0.24,-127.26 82.83 80
2 08/06/2022 19:01:32 -0.12,-128.06 0.79,-132.43 496.49 80
3 08/08/2022 06:30:45 0.07,-128.01 0.89,-124.31 422.17 80
4 08/08/2022 18:49:21 -0.11,-128.08 0.20,-129.47 157.20 80
5 08/10/2022 18:39:51 -0.10,-128.11 -0.46,-126.52 181.31 80
6 08/11/2022 06:58:36 0.14,-128.05 -0.61,-131.71 415.79 80
7 08/13/2022 06:46:25 0.14,-128.07 -0.01,-128.75 77.41 80
8 08/15/2022 06:36:54 0.14,-128.09 0.60,-125.79 261.06 80
9 08/15/2022 18:55:30 -0.17,-128.15 0.42,-130.97 319.59 80
10 08/17/2022 18:45:59 -0.17,-128.17 -0.19,-128.01 18.82 80
11 08/19/2022 18:33:49 -0.16,-128.19 -0.81,-125.05 356.80 80
